TIME,DELAY(SENSOR),PRES,OXYGEN,RAWTEMP,T(OPTODE),TCPHASE,FLUOR,BETA(BETA700),BETA(BETA412),BETA(BETA440),CDOM,C(CSC),ED(ED411.90),ED(ED443.80),ED(ED489.40),ED(ED554.70),LU(LU412.20),LU(LU443.80),LU(LU489.40),LU(LU555.00),COMP,TILTX,TILTY,CHECK
1342131376,5803,857.8400268554688000,179.8594970703125000,473.4381103515625000,8.7093076705932620,39.3151016235351560,51,108,103,86,77,15437,2147445595,2147794752,2147576274,2147823451,2147306084,2147450194,2147754578,2148272969,2504,6,14,46972
1342134972,5805,6.5000000000000000,220.2980041503906200,535.4108886718750000,6.7672767639160160,37.9016685485839840,51,108,104,83,76,15434,2147440969,2147800091,2147585554,2147832612,2147308397,2147446500,2147767168,2148277056,2762,6,15,17821
1342138572,5805,9.8000001907348630,226.8872985839843800,542.3256835937500000,6.5488929748535160,37.6633911132812500,51,107,103,82,76,15432,2147432000,2147802953,2147585115,2147834011,2147303725,2147452041,2147769362,2148281389,294,6,14,42812
1342142172,5806,10.3999996185302730,229.4606018066406200,544.8729858398438000,6.4683489799499510,37.5706405639648440,51,109,102,83,77,15430,2147433371,2147801718,2147587254,2147831323,2147306057,2147443547,2147771849,2148280228,3518,6,14,49573
1342145772,5807,10.0000000000000000,232.9705963134765600,546.5676269531250000,6.4147381782531740,37.4153404235839840,51,107,104,83,77,15422,2147431378,2147804269,2147584365,2147833206,2147306523,2147443309,2147772077,2148280210,48,6,14,52329
1342149372,5804,1041.0000000000000000,232.1295928955078000,546.9075927734375000,6.4039821624755860,37.4655189514160160,51,107,102,83,76,15426,2147435894,2147805312,2147584521,2147837202,2147306112,2147446774,2147769572,2148283163,45,6,14,51319
1342152972,5806,10.6000003814697270,233.2550048828125000,547.1207275390625000,6.3972358703613280,37.4104194641113300,51,107,104,81,76,15425,2147433298,2147801536,2147585746,2147832301,2147306651,2147451117,2147768841,2148280758,27,6,14,53196
1342156572,5803,10.3999996185302730,235.0070953369140600,548.7022705078125000,6.3471741676330570,37.3469009399414060,51,106,104,85,76,15424,2147432502,2147805860,2147583908,2147833097,2147304082,2147445851,2147772196,2148280694,3198,6,14,47723
1342160172,5802,10.3999996185302730,234.6033935546875000,549.2648925781250000,6.3293628692626950,37.3780212402343750,51,108,103,84,76,15424,2147430820,2147803154,2147584320,2147834084,2147305234,2147442843,2147770331,2148278592,3259,6,15,35720
1342163772,5803,10.6999998092651370,234.4763031005859400,549.0308227539062000,6.3367729187011720,37.3802299499511700,50,108,103,82,75,15421,2147431680,2147801106,2147583067,2147833965,2147306605,2147450020,2147773147,2148280850,263,6,14,3850
1342167372,5805,10.8000001907348630,236.1887054443359400,549.6983032226562000,6.3156390190124510,37.3034400939941400,51,107,103,83,77,15414,2147436544,2147803419,2147580699,2147832137,2147303844,2147450020,2147766747,2148279341,1187,6,15,50175
1342170972,5804,10.8999996185302730,235.0989074707031200,550.3419189453125000,6.2952561378479000,37.3720588684082000,51,106,102,82,75,15417,2147430966,2147803300,2147585901,2147834934,2147303753,2147445568,2147767798,2148281499,526,6,15,7160
1342174572,5806,1065.0000000000000000,236.0874938964843800,550.6201171875000000,6.2864441871643070,37.3254508972168000,51,104,103,82,77,15364,2147430144,2147799040,2147586093,2147835995,2147304301,2147450194,2147767698,2148280457,387,6,15,351
1342178172,5804,1103.0000000000000000,237.1369018554687500,550.2114868164062000,6.2993869781494140,37.2635803222656250,51,107,102,82,76,15365,2147431030,2147801444,2147580873,2147837412,2147307218,2147446509,2147770185,2148279808,3063,6,15,49474
1342181772,5804,112.0000000000000000,234.2599945068359400,549.0621948242188000,6.3357810974121090,37.3930015563964840,51,112,105,82,76,15360,2147430729,2147804315,2147583945,2147836434,2147302454,2147445001,2147768402,2148275556,3519,6,15,20831
1342185372,5805,1052.0000000000000000,235.6170043945312500,549.0982055664062000,6.3346409797668460,37.3224601745605500,50,111,103,83,77,15362,2147428498,2147798528,2147584923,2147835035,2147306633,2147445970,2147769618,2148281362,333,6,14,37358
1342188972,5801,10.6999998092651370,234.6647033691406200,548.9536743164062000,6.3392138481140140,37.3691215515136700,51,106,104,85,77,15358,2147430518,2147803611,2147584310,2147835200,2147305645,2147446665,2147769910,2148279872,490,6,15,36603
1342192572,5804,11.3000001907348630,234.6437072753906200,548.9085083007812000,6.3406472206115720,37.3694610595703100,51,111,103,83,76,15358,2147431808,2147799963,2147583515,2147835702,2147306249,2147448667,2147768466,2148280320,426,6,14,39260
1342196172,5805,10.3000001907348630,233.6840972900390600,549.1591186523438000,6.3327140808105470,37.4248504638671900,50,108,101,83,77,15359,2147438537,2147801910,2147583625,2147839149,2147308324,2147445778,2147775222,2148282368,454,6,14,63083
1342199772,5805,1044.0000000000000000,235.5722961425781200,550.0474243164062000,6.3045849800109860,37.3415794372558600,51,105,104,84,76,15359,2147431378,2147803620,2147585572,2147833344,2147309467,2147445558,2147770404,2148280219,205,6,15,58515
1342203372,5804,11.1999998092651370,236.3778991699218800,550.9442749023438000,6.2761759757995605,37.3159294128418000,51,108,103,82,77,15358,2147431186,2147800137,2147580736,2147834029,2147303241,2147449545,2147773942,2148283410,3577,6,15,34364
1342206972,5805,11.0000000000000000,238.3869934082031200,551.4782104492188000,6.2592620849609375,37.2217292785644500,51,107,103,82,77,15363,2147430592,2147804416,2147584384,2147834578,2147308269,2147447058,2147769929,2148284379,3240,6,15,15686
1342210572,5803,1098.0000000000000000,238.0679016113281200,551.8989868164062000,6.2459278106689450,37.2459411621093750,51,109,103,84,76,15360,2147433965,2147806610,2147588150,2147835465,2147305234,2147448649,2147771584,2148280064,3421,6,15,63080
1342214172,5807,11.1999998092651370,237.5234985351562500,552.6052246093750000,6.2235531806945800,37.2872085571289060,51,106,103,82,77,15363,2147432804,2147799094,2147583424,2147834468,2147307163,2147444827,2147769965,2148281225,99,6,14,12563
1342217772,5806,10.1000003814697270,237.8177947998047000,552.6281127929688000,6.2228260040283200,37.2724609375000000,52,105,104,82,76,15354,2147433152,2147805504,2147584411,2147833846,2147306578,2147445668,2147769737,2148279122,236,6,15,52989
1342221372,5806,1083.0000000000000000,238.5816040039062500,552.3212280273438000,6.2325501441955570,37.2270889282226560,51,105,103,82,76,15337,2147430555,2147801846,2147583122,2147833828,2147307456,2147450157,2147772370,2148282633,25,6,14,58119
1342224972,5803,12.1000003814697270,236.7398986816406200,550.5369262695312000,6.2890801429748535,37.2899208068847660,51,109,103,85,75,15334,2147433481,2147803538,2147584950,2147830948,2147306697,2147445677,2147769426,2148281344,2978,6,15,31831
1342228572,5805,11.5000000000000000,235.3473968505859400,550.8942260742188000,6.2777609825134280,37.3685302734375000,51,109,105,83,77,15335,2147432155,2147799716,2147588580,2147831917,2147307364,2147444434,2147770843,2148279387,635,6,14,56783
1342232172,5803,10.1000003814697270,238.4201049804687500,552.5925903320312000,6.2239508628845215,37.2406196594238300,51,107,103,83,76,15333,2147427702,2147801142,2147583222,2147835291,2147304246,2147447296,2147771766,2148280877,3539,6,14,26929
1342235772,5805,11.1999998092651370,238.5552062988281200,552.3173828125000000,6.2326698303222660,37.2282295227050800,51,111,103,82,76,15336,2147431533,2147803638,2147588269,2147836443,2147305325,2147447168,2147772150,2148281819,493,6,15,14626
1342239372,5805,11.0000000000000000,237.3323059082031200,551.8887939453125000,6.2462520599365230,37.2837600708007800,51,105,103,84,77,15327,2147431661,2147802788,2147584210,2147836681,2147305700,2147446948,2147767625,2148280822,582,6,14,57066
1342242972,5803,12.8000001907348630,237.1094970703125000,550.5900268554688000,6.2873969078063965,37.2719802856445300,50,107,102,82,77,15330,2147429622,2147804013,2147584118,2147832813,2147311625,2147448292,2147767899,2148283273,3162,6,15,55973
1342246572,5805,1025.0000000000000000,236.3348999023437500,550.0919189453125000,6.3031730651855470,37.3027381896972660,51,120,103,82,77,15332,2147434651,2147804681,2147581732,2147833389,2147306157,2147445906,2147769874,2148282194,3333,6,15,36775
1342250172,5803,1009.0000000000000000,234.9756927490234400,550.3104248046875000,6.2962551116943360,37.3778686523437500,51,112,103,83,76,15327,2147433636,2147807323,2147588169,2147831853,2147305453,2147450029,2147771108,2148278829,2906,6,15,21159
1342253772,5806,1244.0000000000000000,235.8591003417968800,549.6705932617188000,6.3165168762207030,37.3203315734863300,50,108,102,82,75,15324,2147433947,2147804955,2147585910,2147834715,2147306523,2147449490,2147775725,2148278784,65,6,14,13616
1342257372,5804,12.0000000000000000,235.4595947265625000,550.0407714843750000,6.3047919273376465,37.3471488952636700,51,107,102,83,76,15324,2147432649,2147803200,2147584694,2147833508,2147307081,2147446436,2147769280,2148280969,8,6,15,28467
1342260972,5804,11.8000001907348630,235.0930938720703000,551.4022827148438000,6.2616667747497560,37.3914985656738300,50,107,102,82,76,15324,2147432466,2147801728,2147583899,2147834898,2147306880,2147445677,2147767570,2148282733,3595,6,15,51543
1342264572,5803,11.8999996185302730,235.7050933837890600,551.8931274414062000,6.2461152076721190,37.3683891296386700,51,105,103,84,77,15327,2147434066,2147803757,2147587190,2147833362,2147306825,2147448000,2147772818,2148277504,419,6,15,25409
1342268172,5807,1039.0000000000000000,238.4882049560547000,553.6395263671875000,6.1907691955566410,37.2564506530761700,50,108,104,83,76,15324,2147432512,2147802194,2147581787,2147834368,2147307986,2147446290,2147772178,2148280265,3,6,15,51879
1342271772,5802,11.8000001907348630,239.5240020751953000,554.2468261718750000,6.1715159416198730,37.2143402099609400,51,109,103,83,77,15323,2147428096,2147802642,2147585810,2147834011,2147305170,2147449536,2147771181,2148279378,868,6,15,17002
1342273856,5804,1083.0000000000000000,239.7543029785156200,554.3505859375000000,6.1682281494140625,37.2038192749023440,51,111,102,82,76,15322,2147430555,2147805568,2147583808,2147834569,2147308342,2147452397,2147772361,2148283821,3566,6,15,8875
